Location: Skalnate Pleso
(49.1889°N, 20.2450°E)
Time: 15:10:01
(UTC+01:00)

N. Korean satellite - Visible Passes

Search period start: 28 January 2020 00:00
Search period end: 07 February 2020 00:00
Orbit: 454 x 507 km, 97.2° (Epoch: 28 January)

Date Brightness Start Highest point End Pass type
(mag) Time Alt. Az. Time Alt. Az. Time Alt. Az.
28 Jan 7.0 05:26:27 10° NNE 05:30:02 65° ESE 05:33:38 10° S visible
28 Jan 9.8 17:40:49 10° SW 17:42:46 14° W 17:44:43 10° NW visible
29 Jan 8.4 05:01:10 10° NNE 05:04:27 32° E 05:07:45 10° SSE visible
29 Jan 7.8 06:34:53 10° NNW 06:37:41 22° WNW 06:40:30 10° WSW visible
29 Jan 9.0 17:14:05 10° SSW 17:17:03 27° W 17:20:03 10° NW visible
30 Jan 9.5 04:36:16 10° NE 04:38:47 18° E 04:41:18 10° SE visible
30 Jan 7.0 06:08:57 10° N 06:12:20 39° WNW 06:15:45 10° SW visible
31 Jan 6.5 05:43:16 10° N 05:46:54 79° WNW 05:50:33 10° SSW visible
01 Feb 7.5 05:17:48 10° NNE 05:21:22 51° E 05:24:57 10° S visible
01 Feb 9.7 17:31:36 10° SW 17:34:00 18° W 17:36:27 10° NW visible
02 Feb 8.9 04:52:37 10° NE 04:55:45 26° E 04:58:54 10° SSE visible
02 Feb 7.6 06:26:01 10° N 06:29:06 26° WNW 06:32:12 10° SW visible
03 Feb 9.8 04:27:56 10° NE 04:30:03 15° E 04:32:10 10° SE visible
03 Feb 6.8 06:00:11 10° N 06:03:42 49° WNW 06:07:16 10° SSW visible
04 Feb 6.6 05:34:35 10° NNE 05:38:15 83° ESE 05:41:56 10° SSW visible
04 Feb 10.1 17:49:40 10° WSW 17:51:00 12° W 17:52:20 10° WNW visible
05 Feb 8.0 05:09:11 10° NNE 05:12:41 41° E 05:16:12 10° S visible
05 Feb 9.5 17:22:29 10° SSW 17:25:15 22° W 17:28:04 10° NW visible
06 Feb 9.2 04:44:07 10° NE 04:47:02 22° E 04:49:58 10° SE visible
06 Feb 7.3 06:17:11 10° N 06:20:29 32° WNW 06:23:48 10° SW visible
